Weather History for Wise, VA

Change the Weather History Date:

Saturday, November 12, 2011

  Actual Average Record
Temperature  
Mean Temperature 48 °F -  
Max Temperature 57 °F 51 °F 69 °F (2010)
Min Temperature 39 °F 34 °F 17 °F (1996)
Degree Days  
Heating Degree Days 17    
Moisture  
Dew Point 21 °F    
Average Humidity 35    
Maximum Humidity 49    
Minimum Humidity 22    
Precipitation  
Precipitation 0.00 in - - ()
Sea Level Pressure  
Sea Level Pressure 30.17 in    
Wind  
Wind Speed 13 mph (SSW)    
Max Wind Speed 20 mph    
Max Gust Speed 26 mph    
Visibility 10 miles    
Events      
Averages and records for this station are not official NWS values.
T = Trace of Precipitation, MM = Missing Value Source: NWS Daily Summary

Daily Weather History Graph

Daily Weather History Graph

Search for Another Location

Airport:

Trip Planner

Search our weather history database for the weather conditions in past years. The results will help you decide how hot, cold, wet, or windy it might be!

Date:

Astronomy

Nov. 12, 2011 Rise Set
Actual Time 7:05 AM EST 5:22 PM EST
Civil Twilight 6:37 AM EST 5:50 PM EST
Nautical Twilight 6:06 AM EST 6:21 PM EST
Astronomical Twilight 5:35 AM EST 6:52 PM EST
Moon 6:40 PM EST (11/12) 8:43 AM EST (11/12)
Length of Visible Light 11h 12m
Length of Day
10h 17m
Full, 97% of the Moon is Illuminated
Nov 12
Full
Nov 18
Last Quarter
Nov 25
New
Dec 2
First Quarter
Dec 10
Full

Hourly Weather History & Observations

Time (EST) Temp. Windchill Dew Point Humidity Pressure Visibility Wind Dir Wind Speed Gust Speed Precip Events Conditions
12:15 AM 39.2 °F 31.6 °F 15.8 °F 39% 30.12 in 10.0 mi SW 12.7 mph - N/A   Unknown
12:55 AM 42.8 °F 34.5 °F 17.6 °F 36% 30.12 in 10.0 mi SW 18.4 mph 26.5 mph N/A   Unknown
1:15 AM 42.8 °F 34.8 °F 17.6 °F 36% 30.12 in 10.0 mi SW 17.3 mph 24.2 mph N/A   Unknown
1:35 AM 42.8 °F 34.5 °F 17.6 °F 36% 30.13 in 10.0 mi SW 18.4 mph 24.2 mph N/A   Unknown
1:55 AM 42.8 °F 35.1 °F 19.4 °F 39% 30.13 in 10.0 mi SW 16.1 mph 21.9 mph N/A   Unknown
2:15 AM 42.8 °F 35.8 °F 19.4 °F 39% 30.13 in 10.0 mi SW 13.8 mph 18.4 mph N/A   Unknown
2:35 AM 42.8 °F 34.8 °F 19.4 °F 39% 30.13 in 10.0 mi SW 17.3 mph 21.9 mph N/A   Unknown
2:55 AM 41.0 °F 33.9 °F 19.4 °F 42% 30.13 in 10.0 mi SW 12.7 mph 19.6 mph N/A   Unknown
3:15 AM 41.0 °F 33.5 °F 19.4 °F 42% 30.14 in 10.0 mi SW 13.8 mph 18.4 mph N/A   Unknown
3:35 AM 41.0 °F 34.3 °F 19.4 °F 42% 30.13 in 10.0 mi SW 11.5 mph 21.9 mph N/A   Unknown
3:55 AM 41.0 °F 33.9 °F 21.2 °F 45% 30.14 in 10.0 mi SW 12.7 mph 20.7 mph N/A   Unknown
4:15 AM 41.0 °F 32.8 °F 21.2 °F 45% 30.14 in 10.0 mi SW 16.1 mph 21.9 mph N/A   Unknown
4:35 AM 41.0 °F 32.5 °F 21.2 °F 45% 30.15 in 10.0 mi SW 17.3 mph 20.7 mph N/A   Unknown
4:55 AM 41.0 °F 32.5 °F 21.2 °F 45% 30.16 in 10.0 mi SW 17.3 mph 24.2 mph N/A   Unknown
5:15 AM 41.0 °F 32.5 °F 21.2 °F 45% 30.16 in 10.0 mi SW 17.3 mph 25.3 mph N/A   Unknown
5:35 AM 41.0 °F 32.8 °F 21.2 °F 45% 30.17 in 10.0 mi SW 16.1 mph 24.2 mph N/A   Unknown
5:55 AM 41.0 °F 31.9 °F 21.2 °F 45% 30.17 in 10.0 mi SW 19.6 mph 25.3 mph N/A   Unknown
6:35 AM 41.0 °F 33.9 °F 21.2 °F 45% 30.18 in 10.0 mi SW 12.7 mph - N/A   Unknown
6:55 AM 41.0 °F 33.5 °F 21.2 °F 45% 30.19 in 10.0 mi SW 13.8 mph 20.7 mph N/A   Unknown
7:15 AM 41.0 °F 34.3 °F 23.0 °F 49% 30.19 in 10.0 mi SW 11.5 mph - N/A   Unknown
7:35 AM 41.0 °F 33.9 °F 23.0 °F 49% 30.20 in 10.0 mi SW 12.7 mph 17.3 mph N/A   Unknown
8:15 AM 42.8 °F 36.2 °F 23.0 °F 46% 30.21 in 10.0 mi SW 12.7 mph - N/A   Unknown
8:35 AM 44.6 °F 39.7 °F 23.0 °F 43% 30.22 in 10.0 mi SW 9.2 mph 19.6 mph N/A   Unknown
8:55 AM 44.6 °F 42.2 °F 23.0 °F 43% 30.22 in 10.0 mi South 4.6 mph - N/A   Unknown
9:15 AM 46.4 °F 45.2 °F 23.0 °F 40% 30.22 in 10.0 mi SSW 3.5 mph - N/A   Unknown
9:35 AM 46.4 °F 41.5 °F 23.0 °F 40% 30.23 in 10.0 mi SSW 10.4 mph 16.1 mph N/A   Unknown
9:55 AM 48.2 °F - 23.0 °F 37% 30.22 in 10.0 mi SSW 8.1 mph - N/A   Unknown
10:15 AM 50.0 °F - 24.8 °F 37% 30.23 in 10.0 mi SW 9.2 mph - N/A   Unknown
10:35 AM 50.0 °F - 24.8 °F 37% 30.23 in 10.0 mi SSW 9.2 mph 17.3 mph N/A   Unknown
10:55 AM 51.8 °F - 24.8 °F 35% 30.23 in 10.0 mi SSW 12.7 mph 18.4 mph N/A   Unknown
11:15 AM 51.8 °F - 24.8 °F 35% 30.22 in 10.0 mi SW 10.4 mph 17.3 mph N/A   Unknown
11:35 AM 53.6 °F - 26.6 °F 35% 30.22 in 10.0 mi SW 10.4 mph - N/A   Unknown
11:55 AM 53.6 °F - 24.8 °F 33% 30.21 in 10.0 mi SSW 9.2 mph - N/A   Unknown
12:15 PM 55.4 °F - 24.8 °F 31% 30.20 in 10.0 mi SSW 6.9 mph - N/A   Unknown
12:35 PM 55.4 °F - 24.8 °F 31% 30.20 in 10.0 mi SW 8.1 mph - N/A   Unknown
12:55 PM 57.2 °F - 24.8 °F 29% 30.19 in 10.0 mi WSW 9.2 mph - N/A   Unknown
1:15 PM 57.2 °F - 23.0 °F 27% 30.18 in 10.0 mi SW 6.9 mph - N/A   Unknown
1:35 PM 57.2 °F - 23.0 °F 27% 30.17 in 10.0 mi SW 9.2 mph - N/A   Unknown
2:15 PM 57.2 °F - 21.2 °F 25% 30.17 in 10.0 mi SSE 11.5 mph 16.1 mph N/A   Unknown
2:35 PM 57.2 °F - 21.2 °F 25% 30.17 in 10.0 mi South 10.4 mph 17.3 mph N/A   Unknown
2:55 PM 57.2 °F - 21.2 °F 25% 30.16 in 10.0 mi South 15.0 mph 19.6 mph N/A   Unknown
3:15 PM 57.2 °F - 23.0 °F 27% 30.17 in 10.0 mi SSW 9.2 mph - N/A   Unknown
3:35 PM 57.2 °F - 21.2 °F 25% 30.17 in 10.0 mi South 10.4 mph 17.3 mph N/A   Unknown
3:55 PM 57.2 °F - 21.2 °F 25% 30.17 in 10.0 mi South 9.2 mph - N/A   Unknown
4:15 PM 55.4 °F - 17.6 °F 23% 30.17 in 10.0 mi SSW 11.5 mph - N/A   Unknown
4:35 PM 53.6 °F - 19.4 °F 26% 30.17 in 10.0 mi SSW 13.8 mph 17.3 mph N/A   Unknown
4:55 PM 53.6 °F - 19.4 °F 26% 30.17 in 10.0 mi South 12.7 mph 17.3 mph N/A   Unknown
5:15 PM 51.8 °F - 19.4 °F 28% 30.17 in 10.0 mi South 11.5 mph 17.3 mph N/A   Unknown
5:35 PM 51.8 °F - 19.4 °F 28% 30.17 in 10.0 mi SSW 10.4 mph - N/A   Unknown
5:55 PM 51.8 °F - 17.6 °F 26% 30.17 in 10.0 mi SSW 10.4 mph - N/A   Unknown
6:15 PM 53.6 °F - 15.8 °F 22% 30.17 in 10.0 mi SSW 13.8 mph 19.6 mph N/A   Unknown
6:35 PM 51.8 °F - 15.8 °F 24% 30.17 in 10.0 mi SSW 13.8 mph - N/A   Unknown
6:55 PM 51.8 °F - 15.8 °F 24% 30.17 in 10.0 mi SSW 10.4 mph - N/A   Unknown
7:15 PM 51.8 °F - 15.8 °F 24% 30.17 in 10.0 mi SSW 10.4 mph 17.3 mph N/A   Unknown
7:35 PM 48.2 °F - 15.8 °F 27% 30.16 in 10.0 mi South 3.5 mph - N/A   Unknown
7:55 PM 48.2 °F - 17.6 °F 30% 30.16 in 10.0 mi South 4.6 mph - N/A   Unknown
8:15 PM 48.2 °F - 17.6 °F 30% 30.16 in 10.0 mi Calm Calm - N/A   Unknown
8:35 PM 50.0 °F - 19.4 °F 30% 30.16 in 10.0 mi South 4.6 mph - N/A   Unknown
8:55 PM 51.8 °F - 19.4 °F 28% 30.16 in 10.0 mi SSE 4.6 mph - N/A   Unknown
9:15 PM 51.8 °F - 21.2 °F 30% 30.16 in 10.0 mi South 5.8 mph - N/A   Unknown
9:35 PM 50.0 °F - 19.4 °F 30% 30.16 in 10.0 mi SSE 4.6 mph - N/A   Unknown
10:15 PM 48.2 °F - 21.2 °F 34% 30.15 in 10.0 mi South 4.6 mph - N/A   Unknown
11:15 PM 51.8 °F - 23.0 °F 33% 30.14 in 10.0 mi SSW 11.5 mph - N/A   Unknown
11:35 PM 51.8 °F - 21.2 °F 30% 30.14 in 10.0 mi South 11.5 mph - N/A   Unknown
11:55 PM 53.6 °F - 21.2 °F 28% 30.13 in 10.0 mi South 12.7 mph 20.7 mph N/A   Unknown